Location: Colonia Mina de C?rbuni
(46.1667°N, 22.7167°E)
Time: 03:14:41
(UTC+00:00)

Envisat - Visible Passes

Search period start: 28 February 2024 00:00
Search period end: 09 March 2024 00:00
Orbit: 762 x 764 km, 98.3° (Epoch: 27 February)

Date Brightness Start Highest point End Pass type
(mag) Time Alt. Az. Time Alt. Az. Time Alt. Az.
28 Feb 4.8 01:38:51 10° NNE 01:41:16 27° NE 01:41:16 27° NE visible
28 Feb 4.4 03:18:33 10° NNW 03:21:27 22° NW 03:21:27 22° NW visible
29 Feb 5.5 01:02:08 10° NE 01:03:41 17° NE 01:03:41 17° NE visible
29 Feb 4.0 02:40:39 10° N 02:43:51 34° NNW 02:43:51 34° NNW visible
01 Mar 4.1 02:03:10 10° NNE 02:06:16 38° NNE 02:06:16 38° NNE visible
01 Mar 4.7 03:43:46 10° NNW 03:46:26 15° NW 03:46:26 15° NW visible
02 Mar 4.9 01:26:05 10° NNE 01:28:39 27° NE 01:28:39 27° NE visible
02 Mar 4.1 03:05:23 10° N 03:08:50 27° NW 03:08:50 27° NW visible
03 Mar 5.6 00:49:38 10° NE 00:51:04 15° ENE 00:51:04 15° ENE visible
03 Mar 3.7 02:27:38 10° N 02:31:14 43° NNW 02:31:14 43° NNW visible
04 Mar 4.1 01:50:17 10° NNE 01:53:39 41° NNE 01:53:39 41° NNE visible
04 Mar 4.4 03:30:22 10° NNW 03:33:49 19° WNW 03:33:49 19° WNW visible
05 Mar 5.0 01:13:22 10° NNE 01:16:03 25° ENE 01:16:03 25° ENE visible
05 Mar 3.8 02:52:16 10° N 02:56:14 34° NW 02:56:14 34° NW visible
06 Mar 5.8 00:37:20 10° NE 00:38:28 13° ENE 00:38:28 13° ENE visible
06 Mar 3.4 02:14:40 10° N 02:18:38 54° N 02:18:38 54° N visible
06 Mar 4.8 03:56:00 10° NNW 03:57:51 12° NW 03:58:49 11° WNW visible
07 Mar 4.2 01:37:27 10° NNE 01:41:02 40° NE 01:41:02 40° NE visible
07 Mar 4.2 03:17:07 10° N 03:21:03 23° WNW 03:21:13 23° WNW visible
08 Mar 5.2 01:00:45 10° NE 01:03:27 22° ENE 01:03:27 22° ENE visible
08 Mar 3.4 02:39:13 10° N 02:43:37 45° NW 02:43:37 45° NW visible
